When you browse on this site, cookies collect data to enhance your experience and personalize the content and advertising you see.
Visit our Privacy Policy to learn more. By continuing to use the site, you agree to this use of cookies and data.
EN

Hourly Weather Aleksandrovka

Today, 11 July, Saturday

Time Temperature Precipitation Wind Pressure Humidity
00:00 +17°C° 0 mm 2 mps 752 mmHg 71%
01:00 +17°C° 0 mm 2 mps 752 mmHg 72%
02:00 +16°C° 0 mm 2 mps 752 mmHg 72%
03:00 +16°C° 0 mm 2 mps 753 mmHg 73%
04:00 +17°C° 0 mm 2 mps 753 mmHg 74%
05:00 +17°C° 0 mm 2 mps 753 mmHg 74%
06:00 +19°C° 0 mm 2 mps 753 mmHg 68%
07:00 +21°C° 0 mm 2 mps 753 mmHg 63%
08:00 +24°C° 0 mm 3 mps 753 mmHg 57%
09:00 +25°C° 0 mm 3 mps 753 mmHg 52%
10:00 +26°C° 0 mm 3 mps 753 mmHg 48%
11:00 +27°C° 0 mm 3 mps 753 mmHg 44%
12:00 +28°C° 0 mm 3 mps 752 mmHg 42%
13:00 +28°C° 0 mm 3 mps 752 mmHg 40%
14:00 +29°C° 0 mm 3 mps 752 mmHg 39%
15:00 +28°C° 0 mm 3 mps 751 mmHg 41%
16:00 +28°C° 0 mm 3 mps 751 mmHg 43%
17:00 +28°C° 0 mm 3 mps 750 mmHg 45%
18:00 +26°C° 0 mm 3 mps 750 mmHg 50%
19:00 +24°C° 0 mm 3 mps 750 mmHg 56%
20:00 +21°C° 0 mm 3 mps 750 mmHg 61%
21:00 +20°C° 0 mm 3 mps 750 mmHg 64%
22:00 +20°C° 0 mm 3 mps 750 mmHg 67%
23:00 +19°C° 0 mm 3 mps 750 mmHg 71%

Tomorrow, 12 July, Sunday

Time Temperature Precipitation Wind Pressure Humidity
00:00 +18°C° 0 mm 3 mps 750 mmHg 74%
01:00 +18°C° 0 mm 3 mps 749 mmHg 77%
02:00 +17°C° 0 mm 3 mps 749 mmHg 80%
03:00 +17°C° 0 mm 3 mps 749 mmHg 80%
04:00 +17°C° 0 mm 3 mps 748 mmHg 81%
05:00 +18°C° 0 mm 3 mps 748 mmHg 81%
06:00 +20°C° 0 mm 3 mps 748 mmHg 76%
07:00 +22°C° 0 mm 4 mps 748 mmHg 70%
08:00 +25°C° 0 mm 4 mps 748 mmHg 65%
09:00 +27°C° 0 mm 4 mps 748 mmHg 62%
10:00 +28°C° 0 mm 4 mps 747 mmHg 59%
11:00 +30°C° 0 mm 4 mps 747 mmHg 56%
12:00 +30°C° 0.2 mm 4 mps 747 mmHg 55%
13:00 +31°C° 0.2 mm 3 mps 746 mmHg 54%
14:00 +31°C° 0.2 mm 3 mps 746 mmHg 54%
15:00 +31°C° 0.5 mm 3 mps 745 mmHg 55%
16:00 +30°C° 0.5 mm 3 mps 745 mmHg 56%
17:00 +30°C° 0.5 mm 3 mps 744 mmHg 58%
18:00 +28°C° 0.4 mm 3 mps 744 mmHg 64%
19:00 +27°C° 0.4 mm 3 mps 744 mmHg 71%
20:00 +25°C° 0.4 mm 3 mps 744 mmHg 77%
21:00 +24°C° 1.8 mm 3 mps 744 mmHg 81%
22:00 +22°C° 1.8 mm 3 mps 744 mmHg 86%
23:00 +21°C° 1.8 mm 2 mps 743 mmHg 90%

Day after tomorrow, 13 July, Monday

Time Temperature Precipitation Wind Pressure Humidity
00:00 +21°C° 0.3 mm 2 mps 743 mmHg 91%
01:00 +21°C° 0.3 mm 2 mps 743 mmHg 92%
02:00 +20°C° 0.3 mm 2 mps 742 mmHg 93%
03:00 +21°C° 0.1 mm 2 mps 742 mmHg 92%
04:00 +21°C° 0.1 mm 2 mps 742 mmHg 92%
05:00 +21°C° 0.1 mm 2 mps 742 mmHg 92%
06:00 +23°C° 0 mm 2 mps 742 mmHg 86%
07:00 +24°C° 0 mm 2 mps 741 mmHg 80%
08:00 +25°C° 0 mm 2 mps 741 mmHg 75%
09:00 +27°C° 0.2 mm 2 mps 741 mmHg 69%
10:00 +28°C° 0.2 mm 2 mps 741 mmHg 63%
11:00 +29°C° 0.2 mm 2 mps 741 mmHg 57%
12:00 +30°C° 0.7 mm 2 mps 741 mmHg 56%
13:00 +30°C° 0.7 mm 1 mps 741 mmHg 54%
14:00 +30°C° 0.7 mm 1 mps 740 mmHg 53%
15:00 +29°C° 0.8 mm 2 mps 740 mmHg 58%
16:00 +29°C° 0.8 mm 3 mps 740 mmHg 63%
17:00 +28°C° 0.8 mm 4 mps 739 mmHg 68%
18:00 +26°C° 2.1 mm 4 mps 740 mmHg 75%
19:00 +24°C° 2.1 mm 3 mps 740 mmHg 83%
20:00 +20°C° 2.1 mm 2 mps 741 mmHg 90%
21:00 +20°C° 0.2 mm 2 mps 740 mmHg 92%
22:00 +20°C° 0.2 mm 2 mps 740 mmHg 94%
23:00 +19°C° 0.2 mm 2 mps 740 mmHg 96%

14 July, Tuesday

Time Temperature Precipitation Wind Pressure Humidity
00:00 +19°C° 0 mm 3 mps 740 mmHg 95%
01:00 +19°C° 0 mm 4 mps 740 mmHg 95%
02:00 +19°C° 0 mm 5 mps 741 mmHg 95%
03:00 +17°C° 0 mm 5 mps 741 mmHg 94%
04:00 +18°C° 0 mm 4 mps 741 mmHg 94%
05:00 +18°C° 0 mm 4 mps 741 mmHg 93%
06:00 +18°C° 0 mm 4 mps 741 mmHg 93%
07:00 +18°C° 0 mm 4 mps 741 mmHg 92%
08:00 +17°C° 0 mm 5 mps 741 mmHg 92%
09:00 +17°C° 0.2 mm 5 mps 742 mmHg 91%
10:00 +17°C° 0.2 mm 5 mps 742 mmHg 90%
11:00 +17°C° 0.2 mm 5 mps 742 mmHg 89%
12:00 +17°C° 0.2 mm 5 mps 742 mmHg 87%
13:00 +17°C° 0.2 mm 5 mps 742 mmHg 86%
14:00 +17°C° 0.2 mm 6 mps 742 mmHg 85%
15:00 +17°C° 0 mm 6 mps 742 mmHg 85%
16:00 +17°C° 0 mm 6 mps 742 mmHg 84%
17:00 +17°C° 0 mm 6 mps 742 mmHg 84%
18:00 +17°C° 0 mm 5 mps 743 mmHg 86%
19:00 +16°C° 0 mm 5 mps 743 mmHg 88%
20:00 +17°C° 0 mm 4 mps 744 mmHg 89%
21:00 +16°C° 0 mm 5 mps 744 mmHg 90%
22:00 +15°C° 0 mm 5 mps 744 mmHg 90%
23:00 +15°C° 0 mm 5 mps 744 mmHg 91%

15 July, Wednesday

Time Temperature Precipitation Wind Pressure Humidity
00:00 +15°C° 0 mm 5 mps 744 mmHg 91%
01:00 +14°C° 0 mm 5 mps 744 mmHg 91%
02:00 +14°C° 0 mm 5 mps 744 mmHg 91%
03:00 +14°C° 0 mm 5 mps 745 mmHg 90%
04:00 +14°C° 0 mm 5 mps 745 mmHg 89%
05:00 +14°C° 0 mm 4 mps 745 mmHg 88%
06:00 +15°C° 0 mm 5 mps 746 mmHg 83%
07:00 +17°C° 0 mm 5 mps 746 mmHg 78%
08:00 +19°C° 0 mm 5 mps 747 mmHg 73%
09:00 +21°C° 0 mm 5 mps 747 mmHg 66%
10:00 +22°C° 0 mm 5 mps 747 mmHg 59%
11:00 +25°C° 0 mm 5 mps 747 mmHg 52%
12:00 +25°C° 0 mm 5 mps 747 mmHg 50%
13:00 +25°C° 0 mm 5 mps 747 mmHg 49%
14:00 +26°C° 0 mm 5 mps 747 mmHg 47%
15:00 +25°C° 0 mm 5 mps 747 mmHg 49%
16:00 +25°C° 0 mm 4 mps 747 mmHg 52%
17:00 +25°C° 0 mm 4 mps 747 mmHg 54%
18:00 +22°C° 0 mm 3 mps 747 mmHg 60%
19:00 +20°C° 0 mm 2 mps 747 mmHg 65%
20:00 +19°C° 0 mm 1 mps 748 mmHg 71%
21:00 +19°C° 0 mm 1 mps 748 mmHg 72%
22:00 +18°C° 0 mm 1 mps 748 mmHg 73%
23:00 +15°C° 0 mm 0 mps 748 mmHg 73%

16 July, Thursday

Time Temperature Precipitation Wind Pressure Humidity
00:00 +15°C° 0 mm 0 mps 748 mmHg 74%
01:00 +15°C° 0 mm 0 mps 748 mmHg 75%
02:00 +14°C° 0 mm 0 mps 748 mmHg 75%
03:00 +15°C° 0 mm 0 mps 748 mmHg 75%
04:00 +15°C° 0 mm 0 mps 748 mmHg 75%
05:00 +15°C° 0 mm 0 mps 748 mmHg 75%
06:00 +17°C° 0 mm 0 mps 748 mmHg 68%
07:00 +19°C° 0 mm 0 mps 748 mmHg 62%
08:00 +21°C° 0 mm 0 mps 748 mmHg 56%
09:00 +24°C° 0 mm 1 mps 748 mmHg 51%
10:00 +25°C° 0 mm 1 mps 748 mmHg 47%
11:00 +26°C° 0 mm 2 mps 748 mmHg 43%
12:00 +26°C° 0 mm 2 mps 748 mmHg 43%
13:00 +26°C° 0 mm 1 mps 747 mmHg 42%
14:00 +26°C° 0 mm 1 mps 747 mmHg 42%
15:00 +26°C° 0 mm 1 mps 747 mmHg 45%
16:00 +26°C° 0 mm 1 mps 747 mmHg 47%
17:00 +26°C° 0 mm 1 mps 746 mmHg 49%
18:00 +24°C° 0 mm 1 mps 746 mmHg 52%
19:00 +23°C° 0 mm 1 mps 746 mmHg 54%
20:00 +21°C° 0 mm 1 mps 747 mmHg 57%
21:00 +20°C° 0 mm 2 mps 746 mmHg 58%
22:00 +19°C° 0 mm 2 mps 746 mmHg 59%
23:00 +19°C° 0 mm 2 mps 746 mmHg 60%
Show more